User: anonymous   Login
Location: Unspecified
(0.0000°N, 0.0000°E)
Time: 21:08:03
(UTC+00:00)
Language:

IRIDIUM 149 - Orbit

View from above orbital plane
View from above orbital plane
View from above satellite
View from above satellite

Ground track
Ground track

The orbit is defined by the following mean orbital elements,

1 43250U          26145.49240057 +.00000000 +00000-0 +60874-5 0 00006
2 43250  86.3938 299.8603 0002217  94.0036 266.1414 14.34217840    02
Epoch (UTC): 25 May 2026 11:49:03
Eccentricity: 0.0002217
inclination: 86.3938°
perigee height: 776 km
apogee height: 779 km
right ascension of ascending node: 299.8603°
argument of perigee: 94.0036°
revolutions per day: 14.34217840
mean anomaly at epoch: 266.1414°

The dashed part of the orbit path shows where the satellite is in the earth's shadow,  

DLR